<?xml version="1.0" encoding="UTF-8" standalone="no" ?>
<gpx xmlns="http://www.topografix.com/GPX/1/1" creator="MapSource 6.11.6" version="1.1" xmlns:xsi="http://www.w3.org/2001/XMLSchema-instance" xsi:schemaLocation="http://www.topografix.com/GPX/1/1 http://www.topografix.com/GPX/1/1/gpx.xsd">

  <metadata>
    <link href="http://www.garmin.com">
      <text>Garmin International</text>
    </link>
    <time>2008-10-13T15:42:22Z</time>
    <bounds maxlat="49.839699" maxlon="6.666946" minlat="49.765086" minlon="6.628699"/>
  </metadata>

  <trk>
    <name>Etappe 15 Eifelsteig</name>
    <extensions>
      <gpxx:TrackExtension xmlns:gpxx="http://www.garmin.com/xmlschemas/GpxExtensions/v3" xmlns:xsi="http://www.w3.org/2001/XMLSchema-instance" xsi:schemaLocation="http://www.garmin.com/xmlschemas/GpxExtensions/v3 http://www.garmin.com/xmlschemas/GpxExtensions/v3/GpxExtensionsv3.xsd">
        <gpxx:DisplayColor>White</gpxx:DisplayColor>
      </gpxx:TrackExtension>
    </extensions>
    <trkseg>
      <trkpt lat="49.839699" lon="6.633495">
        <ele>139.000000</ele>
        <time>2008-06-25T16:15:41Z</time>
      </trkpt>
      <trkpt lat="49.839699" lon="6.633495">
        <time>2008-06-25T16:15:41Z</time>
      </trkpt>
      <trkpt lat="49.839581" lon="6.633590">
        <time>2008-06-25T16:15:41Z</time>
      </trkpt>
      <trkpt lat="49.839364" lon="6.633921">
        <time>2008-06-25T16:15:41Z</time>
      </trkpt>
      <trkpt lat="49.838914" lon="6.633985">
        <time>2008-06-25T16:15:41Z</time>
      </trkpt>
      <trkpt lat="49.838240" lon="6.633920">
        <time>2008-06-25T16:15:41Z</time>
      </trkpt>
      <trkpt lat="49.837826" lon="6.633985">
        <time>2008-06-25T16:15:41Z</time>
      </trkpt>
      <trkpt lat="49.837573" lon="6.634106">
        <ele>139.000000</ele>
        <time>2008-06-25T16:15:41Z</time>
      </trkpt>
      <trkpt lat="49.837573" lon="6.634106">
        <time>2008-06-25T16:15:41Z</time>
      </trkpt>
      <trkpt lat="49.837431" lon="6.633785">
        <time>2008-06-25T16:15:41Z</time>
      </trkpt>
      <trkpt lat="49.837085" lon="6.632988">
        <ele>144.000000</ele>
        <time>2008-06-25T16:15:41Z</time>
      </trkpt>
      <trkpt lat="49.837085" lon="6.632988">
        <time>2008-06-25T16:15:41Z</time>
      </trkpt>
      <trkpt lat="49.836760" lon="6.633289">
        <time>2008-06-25T16:15:41Z</time>
      </trkpt>
      <trkpt lat="49.835992" lon="6.633947">
        <time>2008-06-25T16:15:41Z</time>
      </trkpt>
      <trkpt lat="49.835820" lon="6.634208">
        <ele>146.000000</ele>
        <time>2008-06-25T16:15:41Z</time>
      </trkpt>
      <trkpt lat="49.835820" lon="6.634208">
        <time>2008-06-25T16:15:41Z</time>
      </trkpt>
      <trkpt lat="49.835489" lon="6.633885">
        <time>2008-06-25T16:15:41Z</time>
      </trkpt>
      <trkpt lat="49.835176" lon="6.633575">
        <ele>162.000000</ele>
        <time>2008-06-25T16:15:41Z</time>
      </trkpt>
      <trkpt lat="49.835176" lon="6.633575">
        <time>2008-06-25T16:15:41Z</time>
      </trkpt>
      <trkpt lat="49.835047" lon="6.634143">
        <time>2008-06-25T16:15:41Z</time>
      </trkpt>
      <trkpt lat="49.834945" lon="6.634725">
        <ele>158.000000</ele>
        <time>2008-06-25T16:15:41Z</time>
      </trkpt>
      <trkpt lat="49.834945" lon="6.634725">
        <time>2008-06-25T16:15:41Z</time>
      </trkpt>
      <trkpt lat="49.834557" lon="6.634915">
        <time>2008-06-25T16:15:41Z</time>
      </trkpt>
      <trkpt lat="49.834251" lon="6.635050">
        <time>2008-06-25T16:15:41Z</time>
      </trkpt>
      <trkpt lat="49.834077" lon="6.635520">
        <time>2008-06-25T16:15:41Z</time>
      </trkpt>
      <trkpt lat="49.833866" lon="6.636379">
        <time>2008-06-25T16:15:41Z</time>
      </trkpt>
      <trkpt lat="49.833747" lon="6.636781">
        <ele>203.000000</ele>
        <time>2008-06-25T16:15:41Z</time>
      </trkpt>
      <trkpt lat="49.833747" lon="6.636781">
        <time>2008-06-25T16:15:41Z</time>
      </trkpt>
      <trkpt lat="49.833601" lon="6.637168">
        <time>2008-06-25T16:15:41Z</time>
      </trkpt>
      <trkpt lat="49.833472" lon="6.637695">
        <time>2008-06-25T16:15:41Z</time>
      </trkpt>
      <trkpt lat="49.833318" lon="6.637957">
        <time>2008-06-25T16:15:41Z</time>
      </trkpt>
      <trkpt lat="49.833074" lon="6.638078">
        <time>2008-06-25T16:15:41Z</time>
      </trkpt>
      <trkpt lat="49.832734" lon="6.637907">
        <ele>242.000000</ele>
        <time>2008-06-25T16:15:41Z</time>
      </trkpt>
      <trkpt lat="49.832734" lon="6.637907">
        <time>2008-06-25T16:15:41Z</time>
      </trkpt>
      <trkpt lat="49.832534" lon="6.638141">
        <time>2008-06-25T16:15:41Z</time>
      </trkpt>
      <trkpt lat="49.832137" lon="6.638469">
        <time>2008-06-25T16:15:41Z</time>
      </trkpt>
      <trkpt lat="49.831821" lon="6.638743">
        <time>2008-06-25T16:15:41Z</time>
      </trkpt>
      <trkpt lat="49.831739" lon="6.639006">
        <time>2008-06-25T16:15:41Z</time>
      </trkpt>
      <trkpt lat="49.831439" lon="6.639502">
        <time>2008-06-25T16:15:41Z</time>
      </trkpt>
      <trkpt lat="49.831581" lon="6.639796">
        <time>2008-06-25T16:15:41Z</time>
      </trkpt>
      <trkpt lat="49.831805" lon="6.640035">
        <time>2008-06-25T16:15:41Z</time>
      </trkpt>
      <trkpt lat="49.832289" lon="6.640222">
        <time>2008-06-25T16:15:41Z</time>
      </trkpt>
      <trkpt lat="49.832468" lon="6.640447">
        <time>2008-06-25T16:15:41Z</time>
      </trkpt>
      <trkpt lat="49.832655" lon="6.640756">
        <time>2008-06-25T16:15:41Z</time>
      </trkpt>
      <trkpt lat="49.832778" lon="6.641230">
        <time>2008-06-25T16:15:41Z</time>
      </trkpt>
      <trkpt lat="49.832713" lon="6.641618">
        <time>2008-06-25T16:15:41Z</time>
      </trkpt>
      <trkpt lat="49.832532" lon="6.641866">
        <time>2008-06-25T16:15:41Z</time>
      </trkpt>
      <trkpt lat="49.832377" lon="6.642253">
        <time>2008-06-25T16:15:41Z</time>
      </trkpt>
      <trkpt lat="49.832178" lon="6.642445">
        <ele>239.000000</ele>
        <time>2008-06-25T16:15:41Z</time>
      </trkpt>
      <trkpt lat="49.832178" lon="6.642445">
        <time>2008-06-25T16:15:41Z</time>
      </trkpt>
      <trkpt lat="49.831972" lon="6.642345">
        <time>2008-06-25T16:15:41Z</time>
      </trkpt>
      <trkpt lat="49.831780" lon="6.642829">
        <time>2008-06-25T16:15:41Z</time>
      </trkpt>
      <trkpt lat="49.831487" lon="6.643812">
        <ele>247.000000</ele>
        <time>2008-06-25T16:15:41Z</time>
      </trkpt>
      <trkpt lat="49.831487" lon="6.643812">
        <time>2008-06-25T16:15:41Z</time>
      </trkpt>
      <trkpt lat="49.831593" lon="6.644258">
        <time>2008-06-25T16:15:41Z</time>
      </trkpt>
      <trkpt lat="49.831588" lon="6.645036">
        <time>2008-06-25T16:15:41Z</time>
      </trkpt>
      <trkpt lat="49.831342" lon="6.645645">
        <time>2008-06-25T16:15:41Z</time>
      </trkpt>
      <trkpt lat="49.830942" lon="6.646418">
        <time>2008-06-25T16:15:41Z</time>
      </trkpt>
      <trkpt lat="49.830554" lon="6.646690">
        <time>2008-06-25T16:15:41Z</time>
      </trkpt>
      <trkpt lat="49.830004" lon="6.646947">
        <time>2008-06-25T16:15:41Z</time>
      </trkpt>
      <trkpt lat="49.829526" lon="6.647274">
        <ele>254.000000</ele>
        <time>2008-06-25T16:15:41Z</time>
      </trkpt>
      <trkpt lat="49.829526" lon="6.647274">
        <time>2008-06-25T16:15:41Z</time>
      </trkpt>
      <trkpt lat="49.829219" lon="6.647479">
        <time>2008-06-25T16:15:41Z</time>
      </trkpt>
      <trkpt lat="49.828698" lon="6.647361">
        <time>2008-06-25T16:15:41Z</time>
      </trkpt>
      <trkpt lat="49.828179" lon="6.646992">
        <time>2008-06-25T16:15:41Z</time>
      </trkpt>
      <trkpt lat="49.827704" lon="6.646597">
        <time>2008-06-25T16:15:41Z</time>
      </trkpt>
      <trkpt lat="49.827553" lon="6.646414">
        <time>2008-06-25T16:15:41Z</time>
      </trkpt>
      <trkpt lat="49.827323" lon="6.645758">
        <time>2008-06-25T16:15:41Z</time>
      </trkpt>
      <trkpt lat="49.827186" lon="6.646006">
        <ele>249.000000</ele>
        <time>2008-06-25T16:15:41Z</time>
      </trkpt>
      <trkpt lat="49.827186" lon="6.646006">
        <time>2008-06-25T16:15:41Z</time>
      </trkpt>
      <trkpt lat="49.827062" lon="6.645685">
        <time>2008-06-25T16:15:41Z</time>
      </trkpt>
      <trkpt lat="49.826791" lon="6.644389">
        <time>2008-06-25T16:15:41Z</time>
      </trkpt>
      <trkpt lat="49.826571" lon="6.643538">
        <time>2008-06-25T16:15:41Z</time>
      </trkpt>
      <trkpt lat="49.826243" lon="6.642575">
        <time>2008-06-25T16:15:41Z</time>
      </trkpt>
      <trkpt lat="49.825961" lon="6.641612">
        <time>2008-06-25T16:15:41Z</time>
      </trkpt>
      <trkpt lat="49.825822" lon="6.640749">
        <time>2008-06-25T16:15:41Z</time>
      </trkpt>
      <trkpt lat="49.825717" lon="6.640191">
        <time>2008-06-25T16:15:41Z</time>
      </trkpt>
      <trkpt lat="49.825820" lon="6.639456">
        <ele>235.000000</ele>
        <time>2008-06-25T16:15:41Z</time>
      </trkpt>
      <trkpt lat="49.825820" lon="6.639456">
        <time>2008-06-25T16:15:41Z</time>
      </trkpt>
      <trkpt lat="49.825639" lon="6.639773">
        <time>2008-06-25T16:15:41Z</time>
      </trkpt>
      <trkpt lat="49.825510" lon="6.640342">
        <time>2008-06-25T16:15:41Z</time>
      </trkpt>
      <trkpt lat="49.825609" lon="6.641858">
        <time>2008-06-25T16:15:41Z</time>
      </trkpt>
      <trkpt lat="49.825609" lon="6.641858">
        <time>2008-06-25T16:15:41Z</time>
      </trkpt>
      <trkpt lat="49.825625" lon="6.642150">
        <time>2008-06-25T16:15:41Z</time>
      </trkpt>
      <trkpt lat="49.825647" lon="6.643123">
        <time>2008-06-25T16:15:41Z</time>
      </trkpt>
      <trkpt lat="49.825661" lon="6.643804">
        <time>2008-06-25T16:15:41Z</time>
      </trkpt>
      <trkpt lat="49.825737" lon="6.644708">
        <ele>187.000000</ele>
        <time>2008-06-25T16:15:41Z</time>
      </trkpt>
      <trkpt lat="49.825737" lon="6.644708">
        <time>2008-06-25T16:15:41Z</time>
      </trkpt>
      <trkpt lat="49.825547" lon="6.645012">
        <time>2008-06-25T16:15:41Z</time>
      </trkpt>
      <trkpt lat="49.825329" lon="6.645370">
        <time>2008-06-25T16:15:41Z</time>
      </trkpt>
      <trkpt lat="49.825093" lon="6.645700">
        <ele>154.000000</ele>
        <time>2008-06-25T16:15:41Z</time>
      </trkpt>
      <trkpt lat="49.825093" lon="6.645700">
        <time>2008-06-25T16:15:41Z</time>
      </trkpt>
      <trkpt lat="49.825053" lon="6.644936">
        <time>2008-06-25T16:15:41Z</time>
      </trkpt>
      <trkpt lat="49.824976" lon="6.644087">
        <time>2008-06-25T16:15:41Z</time>
      </trkpt>
      <trkpt lat="49.824821" lon="6.642973">
        <time>2008-06-25T16:15:41Z</time>
      </trkpt>
      <trkpt lat="49.824768" lon="6.642666">
        <time>2008-06-25T16:15:41Z</time>
      </trkpt>
      <trkpt lat="49.824768" lon="6.642666">
        <time>2008-06-25T16:15:41Z</time>
      </trkpt>
      <trkpt lat="49.824585" lon="6.641705">
        <time>2008-06-25T16:15:41Z</time>
      </trkpt>
      <trkpt lat="49.824560" lon="6.641302">
        <time>2008-06-25T16:15:41Z</time>
      </trkpt>
      <trkpt lat="49.824583" lon="6.640357">
        <time>2008-06-25T16:15:41Z</time>
      </trkpt>
      <trkpt lat="49.824824" lon="6.639040">
        <time>2008-06-25T16:15:41Z</time>
      </trkpt>
      <trkpt lat="49.824908" lon="6.638569">
        <ele>167.000000</ele>
        <time>2008-06-25T16:15:41Z</time>
      </trkpt>
      <trkpt lat="49.824908" lon="6.638569">
        <time>2008-06-25T16:15:41Z</time>
      </trkpt>
      <trkpt lat="49.825082" lon="6.637987">
        <time>2008-06-25T16:15:41Z</time>
      </trkpt>
      <trkpt lat="49.825229" lon="6.637336">
        <time>2008-06-25T16:15:41Z</time>
      </trkpt>
      <trkpt lat="49.824861" lon="6.637359">
        <time>2008-06-25T16:15:41Z</time>
      </trkpt>
      <trkpt lat="49.824897" lon="6.637234">
        <ele>157.000000</ele>
        <time>2008-06-25T16:15:41Z</time>
      </trkpt>
      <trkpt lat="49.824897" lon="6.637234">
        <time>2008-06-25T16:15:41Z</time>
      </trkpt>
      <trkpt lat="49.824962" lon="6.636888">
        <time>2008-06-25T16:15:41Z</time>
      </trkpt>
      <trkpt lat="49.825084" lon="6.635972">
        <time>2008-06-25T16:15:41Z</time>
      </trkpt>
      <trkpt lat="49.825059" lon="6.635694">
        <time>2008-06-25T16:15:41Z</time>
      </trkpt>
      <trkpt lat="49.824979" lon="6.635429">
        <time>2008-06-25T16:15:41Z</time>
      </trkpt>
      <trkpt lat="49.824971" lon="6.635192">
        <time>2008-06-25T16:15:41Z</time>
      </trkpt>
      <trkpt lat="49.825161" lon="6.635070">
        <ele>219.000000</ele>
        <time>2008-06-25T16:15:41Z</time>
      </trkpt>
      <trkpt lat="49.825161" lon="6.635070">
        <time>2008-06-25T16:15:41Z</time>
      </trkpt>
      <trkpt lat="49.825028" lon="6.634651">
        <time>2008-06-25T16:15:41Z</time>
      </trkpt>
      <trkpt lat="49.825032" lon="6.634040">
        <time>2008-06-25T16:15:41Z</time>
      </trkpt>
      <trkpt lat="49.825016" lon="6.633706">
        <time>2008-06-25T16:15:41Z</time>
      </trkpt>
      <trkpt lat="49.824954" lon="6.633511">
        <time>2008-06-25T16:15:41Z</time>
      </trkpt>
      <trkpt lat="49.824900" lon="6.633399">
        <time>2008-06-25T16:15:41Z</time>
      </trkpt>
      <trkpt lat="49.824838" lon="6.633273">
        <time>2008-06-25T16:15:41Z</time>
      </trkpt>
      <trkpt lat="49.824838" lon="6.633273">
        <time>2008-06-25T16:15:41Z</time>
      </trkpt>
      <trkpt lat="49.824758" lon="6.633049">
        <time>2008-06-25T16:15:41Z</time>
      </trkpt>
      <trkpt lat="49.824633" lon="6.632923">
        <time>2008-06-25T16:15:41Z</time>
      </trkpt>
      <trkpt lat="49.824124" lon="6.632291">
        <ele>203.000000</ele>
        <time>2008-06-25T16:15:41Z</time>
      </trkpt>
      <trkpt lat="49.824124" lon="6.632291">
        <time>2008-06-25T16:15:41Z</time>
      </trkpt>
      <trkpt lat="49.823916" lon="6.632538">
        <time>2008-06-25T16:15:41Z</time>
      </trkpt>
      <trkpt lat="49.823514" lon="6.632102">
        <time>2008-06-25T16:15:41Z</time>
      </trkpt>
      <trkpt lat="49.823308" lon="6.631919">
        <ele>199.000000</ele>
        <time>2008-06-25T16:15:41Z</time>
      </trkpt>
      <trkpt lat="49.823308" lon="6.631919">
        <time>2008-06-25T16:15:41Z</time>
      </trkpt>
      <trkpt lat="49.823165" lon="6.631778">
        <time>2008-06-25T16:15:41Z</time>
      </trkpt>
      <trkpt lat="49.822996" lon="6.631470">
        <time>2008-06-25T16:15:41Z</time>
      </trkpt>
      <trkpt lat="49.823214" lon="6.631014">
        <ele>235.000000</ele>
        <time>2008-06-25T16:15:41Z</time>
      </trkpt>
      <trkpt lat="49.823214" lon="6.631014">
        <time>2008-06-25T16:15:41Z</time>
      </trkpt>
      <trkpt lat="49.822696" lon="6.630410">
        <time>2008-06-25T16:15:41Z</time>
      </trkpt>
      <trkpt lat="49.822473" lon="6.630101">
        <time>2008-06-25T16:15:41Z</time>
      </trkpt>
      <trkpt lat="49.822473" lon="6.630101">
        <time>2008-06-25T16:15:41Z</time>
      </trkpt>
      <trkpt lat="49.821538" lon="6.630117">
        <ele>245.000000</ele>
        <time>2008-06-25T16:15:41Z</time>
      </trkpt>
      <trkpt lat="49.821538" lon="6.630117">
        <time>2008-06-25T16:15:41Z</time>
      </trkpt>
      <trkpt lat="49.821325" lon="6.629531">
        <time>2008-06-25T16:15:41Z</time>
      </trkpt>
      <trkpt lat="49.821103" lon="6.629055">
        <time>2008-06-25T16:15:41Z</time>
      </trkpt>
      <trkpt lat="49.820906" lon="6.628844">
        <time>2008-06-25T16:15:41Z</time>
      </trkpt>
      <trkpt lat="49.820718" lon="6.628730">
        <time>2008-06-25T16:15:41Z</time>
      </trkpt>
      <trkpt lat="49.820466" lon="6.628699">
        <ele>263.000000</ele>
        <time>2008-06-25T16:15:41Z</time>
      </trkpt>
      <trkpt lat="49.820466" lon="6.628699">
        <time>2008-06-25T16:15:41Z</time>
      </trkpt>
      <trkpt lat="49.820777" lon="6.629565">
        <time>2008-06-25T16:15:41Z</time>
      </trkpt>
      <trkpt lat="49.820863" lon="6.630261">
        <time>2008-06-25T16:15:41Z</time>
      </trkpt>
      <trkpt lat="49.820863" lon="6.630261">
        <time>2008-06-25T16:15:41Z</time>
      </trkpt>
      <trkpt lat="49.821084" lon="6.630986">
        <time>2008-06-25T16:15:41Z</time>
      </trkpt>
      <trkpt lat="49.821493" lon="6.631687">
        <time>2008-06-25T16:15:41Z</time>
      </trkpt>
      <trkpt lat="49.821804" lon="6.632344">
        <time>2008-06-25T16:15:41Z</time>
      </trkpt>
      <trkpt lat="49.822311" lon="6.633351">
        <time>2008-06-25T16:15:41Z</time>
      </trkpt>
      <trkpt lat="49.822552" lon="6.633771">
        <ele>271.000000</ele>
        <time>2008-06-25T16:15:41Z</time>
      </trkpt>
      <trkpt lat="49.822552" lon="6.633771">
        <time>2008-06-25T16:15:41Z</time>
      </trkpt>
      <trkpt lat="49.822864" lon="6.634206">
        <time>2008-06-25T16:15:41Z</time>
      </trkpt>
      <trkpt lat="49.823349" lon="6.634379">
        <time>2008-06-25T16:15:41Z</time>
      </trkpt>
      <trkpt lat="49.823545" lon="6.634562">
        <time>2008-06-25T16:15:41Z</time>
      </trkpt>
      <trkpt lat="49.823597" lon="6.635077">
        <time>2008-06-25T16:15:41Z</time>
      </trkpt>
      <trkpt lat="49.823366" lon="6.636130">
        <ele>233.000000</ele>
        <time>2008-06-25T16:15:41Z</time>
      </trkpt>
      <trkpt lat="49.823366" lon="6.636130">
        <time>2008-06-25T16:15:41Z</time>
      </trkpt>
      <trkpt lat="49.823292" lon="6.636435">
        <time>2008-06-25T16:15:41Z</time>
      </trkpt>
      <trkpt lat="49.823321" lon="6.637770">
        <time>2008-06-25T16:15:41Z</time>
      </trkpt>
      <trkpt lat="49.823340" lon="6.639312">
        <time>2008-06-25T16:15:41Z</time>
      </trkpt>
      <trkpt lat="49.823121" lon="6.639879">
        <time>2008-06-25T16:15:41Z</time>
      </trkpt>
      <trkpt lat="49.822893" lon="6.640390">
        <ele>214.000000</ele>
        <time>2008-06-25T16:15:41Z</time>
      </trkpt>
      <trkpt lat="49.822893" lon="6.640390">
        <time>2008-06-25T16:15:41Z</time>
      </trkpt>
      <trkpt lat="49.822629" lon="6.641012">
        <time>2008-06-25T16:15:41Z</time>
      </trkpt>
      <trkpt lat="49.822260" lon="6.641105">
        <time>2008-06-25T16:15:41Z</time>
      </trkpt>
      <trkpt lat="49.822070" lon="6.641325">
        <time>2008-06-25T16:15:41Z</time>
      </trkpt>
      <trkpt lat="49.822070" lon="6.641325">
        <time>2008-06-25T16:15:41Z</time>
      </trkpt>
      <trkpt lat="49.821614" lon="6.642458">
        <time>2008-06-25T16:15:41Z</time>
      </trkpt>
      <trkpt lat="49.821031" lon="6.643701">
        <ele>242.000000</ele>
        <time>2008-06-25T16:15:41Z</time>
      </trkpt>
      <trkpt lat="49.821031" lon="6.643701">
        <time>2008-06-25T16:15:41Z</time>
      </trkpt>
      <trkpt lat="49.820554" lon="6.643861">
        <time>2008-06-25T16:15:41Z</time>
      </trkpt>
      <trkpt lat="49.819735" lon="6.643975">
        <ele>248.000000</ele>
        <time>2008-06-25T16:15:41Z</time>
      </trkpt>
      <trkpt lat="49.819735" lon="6.643975">
        <time>2008-06-25T16:15:41Z</time>
      </trkpt>
      <trkpt lat="49.819528" lon="6.644126">
        <time>2008-06-25T16:15:41Z</time>
      </trkpt>
      <trkpt lat="49.819239" lon="6.644358">
        <time>2008-06-25T16:15:41Z</time>
      </trkpt>
      <trkpt lat="49.818951" lon="6.644285">
        <time>2008-06-25T16:15:41Z</time>
      </trkpt>
      <trkpt lat="49.818647" lon="6.644003">
        <time>2008-06-25T16:15:41Z</time>
      </trkpt>
      <trkpt lat="49.818424" lon="6.643708">
        <time>2008-06-25T16:15:41Z</time>
      </trkpt>
      <trkpt lat="49.818076" lon="6.643189">
        <time>2008-06-25T16:15:41Z</time>
      </trkpt>
      <trkpt lat="49.817977" lon="6.643230">
        <ele>276.000000</ele>
        <time>2008-06-25T16:15:41Z</time>
      </trkpt>
      <trkpt lat="49.817977" lon="6.643230">
        <time>2008-06-25T16:15:41Z</time>
      </trkpt>
      <trkpt lat="49.817697" lon="6.643434">
        <time>2008-06-25T16:15:41Z</time>
      </trkpt>
      <trkpt lat="49.817046" lon="6.644093">
        <time>2008-06-25T16:15:41Z</time>
      </trkpt>
      <trkpt lat="49.816757" lon="6.644339">
        <time>2008-06-25T16:15:41Z</time>
      </trkpt>
      <trkpt lat="49.816351" lon="6.644653">
        <ele>266.000000</ele>
        <time>2008-06-25T16:15:41Z</time>
      </trkpt>
      <trkpt lat="49.816351" lon="6.644653">
        <time>2008-06-25T16:15:41Z</time>
      </trkpt>
      <trkpt lat="49.816178" lon="6.645123">
        <time>2008-06-25T16:15:41Z</time>
      </trkpt>
      <trkpt lat="49.816347" lon="6.645417">
        <time>2008-06-25T16:15:41Z</time>
      </trkpt>
      <trkpt lat="49.816463" lon="6.645572">
        <ele>269.000000</ele>
        <time>2008-06-25T16:15:41Z</time>
      </trkpt>
      <trkpt lat="49.816463" lon="6.645572">
        <time>2008-06-25T16:15:41Z</time>
      </trkpt>
      <trkpt lat="49.816425" lon="6.645932">
        <time>2008-06-25T16:15:41Z</time>
      </trkpt>
      <trkpt lat="49.816297" lon="6.646236">
        <time>2008-06-25T16:15:41Z</time>
      </trkpt>
      <trkpt lat="49.816171" lon="6.646276">
        <time>2008-06-25T16:15:41Z</time>
      </trkpt>
      <trkpt lat="49.815831" lon="6.645939">
        <ele>262.000000</ele>
        <time>2008-06-25T16:15:41Z</time>
      </trkpt>
      <trkpt lat="49.815831" lon="6.645939">
        <time>2008-06-25T16:15:41Z</time>
      </trkpt>
      <trkpt lat="49.815757" lon="6.646410">
        <time>2008-06-25T16:15:41Z</time>
      </trkpt>
      <trkpt lat="49.815763" lon="6.646855">
        <time>2008-06-25T16:15:41Z</time>
      </trkpt>
      <trkpt lat="49.815825" lon="6.647119">
        <time>2008-06-25T16:15:41Z</time>
      </trkpt>
      <trkpt lat="49.815895" lon="6.647509">
        <ele>242.000000</ele>
        <time>2008-06-25T16:15:41Z</time>
      </trkpt>
      <trkpt lat="49.815895" lon="6.647509">
        <time>2008-06-25T16:15:41Z</time>
      </trkpt>
      <trkpt lat="49.815787" lon="6.647383">
        <time>2008-06-25T16:15:41Z</time>
      </trkpt>
      <trkpt lat="49.815601" lon="6.647005">
        <time>2008-06-25T16:15:41Z</time>
      </trkpt>
      <trkpt lat="49.815414" lon="6.646558">
        <ele>250.000000</ele>
        <time>2008-06-25T16:15:41Z</time>
      </trkpt>
      <trkpt lat="49.815414" lon="6.646558">
        <time>2008-06-25T16:15:41Z</time>
      </trkpt>
      <trkpt lat="49.815316" lon="6.646515">
        <time>2008-06-25T16:15:41Z</time>
      </trkpt>
      <trkpt lat="49.815037" lon="6.646595">
        <time>2008-06-25T16:15:41Z</time>
      </trkpt>
      <trkpt lat="49.814675" lon="6.647021">
        <time>2008-06-25T16:15:41Z</time>
      </trkpt>
      <trkpt lat="49.814458" lon="6.647101">
        <ele>195.000000</ele>
        <time>2008-06-25T16:15:41Z</time>
      </trkpt>
      <trkpt lat="49.814458" lon="6.647101">
        <time>2008-06-25T16:15:41Z</time>
      </trkpt>
      <trkpt lat="49.814335" lon="6.646683">
        <time>2008-06-25T16:15:41Z</time>
      </trkpt>
      <trkpt lat="49.814112" lon="6.646291">
        <time>2008-06-25T16:15:41Z</time>
      </trkpt>
      <trkpt lat="49.813746" lon="6.645841">
        <time>2008-06-25T16:15:41Z</time>
      </trkpt>
      <trkpt lat="49.813505" lon="6.645602">
        <time>2008-06-25T16:15:41Z</time>
      </trkpt>
      <trkpt lat="49.813505" lon="6.645602">
        <time>2008-06-25T16:15:41Z</time>
      </trkpt>
      <trkpt lat="49.813173" lon="6.645500">
        <time>2008-06-25T16:15:41Z</time>
      </trkpt>
      <trkpt lat="49.812732" lon="6.645578">
        <ele>196.000000</ele>
        <time>2008-06-25T16:15:41Z</time>
      </trkpt>
      <trkpt lat="49.812732" lon="6.645578">
        <time>2008-06-25T16:15:41Z</time>
      </trkpt>
      <trkpt lat="49.812686" lon="6.645744">
        <time>2008-06-25T16:15:41Z</time>
      </trkpt>
      <trkpt lat="49.812638" lon="6.646243">
        <time>2008-06-25T16:15:41Z</time>
      </trkpt>
      <trkpt lat="49.813078" lon="6.646360">
        <time>2008-06-25T16:15:41Z</time>
      </trkpt>
      <trkpt lat="49.813434" lon="6.646949">
        <time>2008-06-25T16:15:41Z</time>
      </trkpt>
      <trkpt lat="49.813434" lon="6.646949">
        <time>2008-06-25T16:15:41Z</time>
      </trkpt>
      <trkpt lat="49.813523" lon="6.647103">
        <time>2008-06-25T16:15:41Z</time>
      </trkpt>
      <trkpt lat="49.813796" lon="6.648190">
        <time>2008-06-25T16:15:41Z</time>
      </trkpt>
      <trkpt lat="49.813709" lon="6.649328">
        <time>2008-06-25T16:15:41Z</time>
      </trkpt>
      <trkpt lat="49.813419" lon="6.649699">
        <time>2008-06-25T16:15:41Z</time>
      </trkpt>
      <trkpt lat="49.813288" lon="6.650656">
        <time>2008-06-25T16:15:41Z</time>
      </trkpt>
      <trkpt lat="49.813061" lon="6.651029">
        <time>2008-06-25T16:15:41Z</time>
      </trkpt>
      <trkpt lat="49.812816" lon="6.651387">
        <ele>218.000000</ele>
        <time>2008-06-25T16:15:41Z</time>
      </trkpt>
      <trkpt lat="49.812816" lon="6.651387">
        <time>2008-06-25T16:15:41Z</time>
      </trkpt>
      <trkpt lat="49.812401" lon="6.651617">
        <time>2008-06-25T16:15:41Z</time>
      </trkpt>
      <trkpt lat="49.812228" lon="6.651990">
        <time>2008-06-25T16:15:41Z</time>
      </trkpt>
      <trkpt lat="49.812117" lon="6.652628">
        <time>2008-06-25T16:15:41Z</time>
      </trkpt>
      <trkpt lat="49.812025" lon="6.652946">
        <time>2008-06-25T16:15:41Z</time>
      </trkpt>
      <trkpt lat="49.811861" lon="6.653319">
        <ele>225.000000</ele>
        <time>2008-06-25T16:15:41Z</time>
      </trkpt>
      <trkpt lat="49.811861" lon="6.653319">
        <time>2008-06-25T16:15:41Z</time>
      </trkpt>
      <trkpt lat="49.811770" lon="6.653470">
        <time>2008-06-25T16:15:41Z</time>
      </trkpt>
      <trkpt lat="49.811661" lon="6.653747">
        <time>2008-06-25T16:15:41Z</time>
      </trkpt>
      <trkpt lat="49.811560" lon="6.654037">
        <ele>224.000000</ele>
        <time>2008-06-25T16:15:41Z</time>
      </trkpt>
      <trkpt lat="49.811560" lon="6.654037">
        <time>2008-06-25T16:15:41Z</time>
      </trkpt>
      <trkpt lat="49.811249" lon="6.653380">
        <time>2008-06-25T16:15:41Z</time>
      </trkpt>
      <trkpt lat="49.810928" lon="6.652973">
        <time>2008-06-25T16:15:41Z</time>
      </trkpt>
      <trkpt lat="49.810794" lon="6.652776">
        <time>2008-06-25T16:15:41Z</time>
      </trkpt>
      <trkpt lat="49.810625" lon="6.652496">
        <time>2008-06-25T16:15:41Z</time>
      </trkpt>
      <trkpt lat="49.810518" lon="6.652328">
        <time>2008-06-25T16:15:41Z</time>
      </trkpt>
      <trkpt lat="49.810127" lon="6.651531">
        <time>2008-06-25T16:15:41Z</time>
      </trkpt>
      <trkpt lat="49.809582" lon="6.650899">
        <time>2008-06-25T16:15:41Z</time>
      </trkpt>
      <trkpt lat="49.809233" lon="6.650644">
        <time>2008-06-25T16:15:41Z</time>
      </trkpt>
      <trkpt lat="49.809020" lon="6.650169">
        <time>2008-06-25T16:15:41Z</time>
      </trkpt>
      <trkpt lat="49.808806" lon="6.649818">
        <time>2008-06-25T16:15:41Z</time>
      </trkpt>
      <trkpt lat="49.808600" lon="6.649607">
        <time>2008-06-25T16:15:41Z</time>
      </trkpt>
      <trkpt lat="49.808108" lon="6.649142">
        <ele>227.000000</ele>
        <time>2008-06-25T16:15:41Z</time>
      </trkpt>
      <trkpt lat="49.808108" lon="6.649142">
        <time>2008-06-25T16:15:41Z</time>
      </trkpt>
      <trkpt lat="49.808095" lon="6.648322">
        <time>2008-06-25T16:15:41Z</time>
      </trkpt>
      <trkpt lat="49.807785" lon="6.647540">
        <time>2008-06-25T16:15:41Z</time>
      </trkpt>
      <trkpt lat="49.807167" lon="6.647101">
        <time>2008-06-25T16:15:41Z</time>
      </trkpt>
      <trkpt lat="49.806943" lon="6.646918">
        <ele>252.000000</ele>
        <time>2008-06-25T16:15:41Z</time>
      </trkpt>
      <trkpt lat="49.806943" lon="6.646918">
        <time>2008-06-25T16:15:41Z</time>
      </trkpt>
      <trkpt lat="49.806836" lon="6.646763">
        <time>2008-06-25T16:15:41Z</time>
      </trkpt>
      <trkpt lat="49.806665" lon="6.646706">
        <time>2008-06-25T16:15:41Z</time>
      </trkpt>
      <trkpt lat="49.806585" lon="6.646607">
        <time>2008-06-25T16:15:41Z</time>
      </trkpt>
      <trkpt lat="49.806531" lon="6.646718">
        <ele>238.000000</ele>
        <time>2008-06-25T16:15:41Z</time>
      </trkpt>
      <trkpt lat="49.806531" lon="6.646718">
        <time>2008-06-25T16:15:41Z</time>
      </trkpt>
      <trkpt lat="49.806503" lon="6.646815">
        <time>2008-06-25T16:15:41Z</time>
      </trkpt>
      <trkpt lat="49.806403" lon="6.646938">
        <time>2008-06-25T16:15:41Z</time>
      </trkpt>
      <trkpt lat="49.806214" lon="6.647116">
        <time>2008-06-25T16:15:41Z</time>
      </trkpt>
      <trkpt lat="49.806096" lon="6.647212">
        <time>2008-06-25T16:15:41Z</time>
      </trkpt>
      <trkpt lat="49.806014" lon="6.647419">
        <time>2008-06-25T16:15:41Z</time>
      </trkpt>
      <trkpt lat="49.805915" lon="6.647501">
        <time>2008-06-25T16:15:41Z</time>
      </trkpt>
      <trkpt lat="49.805986" lon="6.647599">
        <ele>205.000000</ele>
        <time>2008-06-25T16:15:41Z</time>
      </trkpt>
      <trkpt lat="49.805986" lon="6.647599">
        <time>2008-06-25T16:15:41Z</time>
      </trkpt>
      <trkpt lat="49.805582" lon="6.647608">
        <time>2008-06-25T16:15:41Z</time>
      </trkpt>
      <trkpt lat="49.805392" lon="6.647744">
        <ele>211.000000</ele>
        <time>2008-06-25T16:15:41Z</time>
      </trkpt>
      <trkpt lat="49.805392" lon="6.647744">
        <time>2008-06-25T16:15:41Z</time>
      </trkpt>
      <trkpt lat="49.805185" lon="6.647853">
        <time>2008-06-25T16:15:41Z</time>
      </trkpt>
      <trkpt lat="49.804951" lon="6.647891">
        <time>2008-06-25T16:15:41Z</time>
      </trkpt>
      <trkpt lat="49.804536" lon="6.648011">
        <time>2008-06-25T16:15:41Z</time>
      </trkpt>
      <trkpt lat="49.804195" lon="6.648020">
        <ele>230.000000</ele>
        <time>2008-06-25T16:15:41Z</time>
      </trkpt>
      <trkpt lat="49.804195" lon="6.648020">
        <time>2008-06-25T16:15:41Z</time>
      </trkpt>
      <trkpt lat="49.803943" lon="6.648003">
        <time>2008-06-25T16:15:41Z</time>
      </trkpt>
      <trkpt lat="49.803594" lon="6.647776">
        <time>2008-06-25T16:15:41Z</time>
      </trkpt>
      <trkpt lat="49.803415" lon="6.647635">
        <time>2008-06-25T16:15:41Z</time>
      </trkpt>
      <trkpt lat="49.802986" lon="6.647129">
        <ele>238.000000</ele>
        <time>2008-06-25T16:15:41Z</time>
      </trkpt>
      <trkpt lat="49.802986" lon="6.647129">
        <time>2008-06-25T16:15:41Z</time>
      </trkpt>
      <trkpt lat="49.802816" lon="6.646946">
        <time>2008-06-25T16:15:41Z</time>
      </trkpt>
      <trkpt lat="49.802457" lon="6.646886">
        <time>2008-06-25T16:15:41Z</time>
      </trkpt>
      <trkpt lat="49.801980" lon="6.646977">
        <time>2008-06-25T16:15:41Z</time>
      </trkpt>
      <trkpt lat="49.801691" lon="6.647195">
        <time>2008-06-25T16:15:41Z</time>
      </trkpt>
      <trkpt lat="49.801132" lon="6.647396">
        <time>2008-06-25T16:15:41Z</time>
      </trkpt>
      <trkpt lat="49.800800" lon="6.647405">
        <ele>252.000000</ele>
        <time>2008-06-25T16:15:41Z</time>
      </trkpt>
      <trkpt lat="49.800800" lon="6.647405">
        <time>2008-06-25T16:15:41Z</time>
      </trkpt>
      <trkpt lat="49.800728" lon="6.647418">
        <time>2008-06-25T16:15:41Z</time>
      </trkpt>
      <trkpt lat="49.800628" lon="6.647486">
        <time>2008-06-25T16:15:41Z</time>
      </trkpt>
      <trkpt lat="49.800537" lon="6.647680">
        <time>2008-06-25T16:15:41Z</time>
      </trkpt>
      <trkpt lat="49.800464" lon="6.647915">
        <time>2008-06-25T16:15:41Z</time>
      </trkpt>
      <trkpt lat="49.800298" lon="6.648635">
        <time>2008-06-25T16:15:41Z</time>
      </trkpt>
      <trkpt lat="49.800098" lon="6.649160">
        <ele>260.000000</ele>
        <time>2008-06-25T16:15:41Z</time>
      </trkpt>
      <trkpt lat="49.800098" lon="6.649160">
        <time>2008-06-25T16:15:41Z</time>
      </trkpt>
      <trkpt lat="49.800049" lon="6.649701">
        <time>2008-06-25T16:15:41Z</time>
      </trkpt>
      <trkpt lat="49.799928" lon="6.650616">
        <time>2008-06-25T16:15:41Z</time>
      </trkpt>
      <trkpt lat="49.799759" lon="6.651822">
        <time>2008-06-25T16:15:41Z</time>
      </trkpt>
      <trkpt lat="49.799664" lon="6.652710">
        <time>2008-06-25T16:15:41Z</time>
      </trkpt>
      <trkpt lat="49.799632" lon="6.653571">
        <ele>262.000000</ele>
        <time>2008-06-25T16:15:41Z</time>
      </trkpt>
      <trkpt lat="49.799632" lon="6.653571">
        <time>2008-06-25T16:15:41Z</time>
      </trkpt>
      <trkpt lat="49.799540" lon="6.654014">
        <time>2008-06-25T16:15:41Z</time>
      </trkpt>
      <trkpt lat="49.799457" lon="6.654374">
        <time>2008-06-25T16:15:41Z</time>
      </trkpt>
      <trkpt lat="49.799457" lon="6.654374">
        <time>2008-06-25T16:15:41Z</time>
      </trkpt>
      <trkpt lat="49.799366" lon="6.654595">
        <time>2008-06-25T16:15:41Z</time>
      </trkpt>
      <trkpt lat="49.799248" lon="6.654746">
        <time>2008-06-25T16:15:41Z</time>
      </trkpt>
      <trkpt lat="49.799032" lon="6.654743">
        <ele>256.000000</ele>
        <time>2008-06-25T16:15:41Z</time>
      </trkpt>
      <trkpt lat="49.799032" lon="6.654743">
        <time>2008-06-25T16:15:41Z</time>
      </trkpt>
      <trkpt lat="49.798620" lon="6.654446">
        <time>2008-06-25T16:15:41Z</time>
      </trkpt>
      <trkpt lat="49.798228" lon="6.653844">
        <time>2008-06-25T16:15:41Z</time>
      </trkpt>
      <trkpt lat="49.798085" lon="6.653731">
        <time>2008-06-25T16:15:41Z</time>
      </trkpt>
      <trkpt lat="49.797959" lon="6.653757">
        <ele>243.000000</ele>
        <time>2008-06-25T16:15:41Z</time>
      </trkpt>
      <trkpt lat="49.797959" lon="6.653757">
        <time>2008-06-25T16:15:41Z</time>
      </trkpt>
      <trkpt lat="49.797823" lon="6.653922">
        <time>2008-06-25T16:15:41Z</time>
      </trkpt>
      <trkpt lat="49.797704" lon="6.654267">
        <time>2008-06-25T16:15:41Z</time>
      </trkpt>
      <trkpt lat="49.797703" lon="6.654545">
        <time>2008-06-25T16:15:41Z</time>
      </trkpt>
      <trkpt lat="49.797782" lon="6.654768">
        <time>2008-06-25T16:15:41Z</time>
      </trkpt>
      <trkpt lat="49.798141" lon="6.654940">
        <time>2008-06-25T16:15:41Z</time>
      </trkpt>
      <trkpt lat="49.798274" lon="6.655219">
        <time>2008-06-25T16:15:41Z</time>
      </trkpt>
      <trkpt lat="49.798273" lon="6.655456">
        <time>2008-06-25T16:15:41Z</time>
      </trkpt>
      <trkpt lat="49.798209" lon="6.655677">
        <time>2008-06-25T16:15:41Z</time>
      </trkpt>
      <trkpt lat="49.798118" lon="6.655842">
        <ele>255.000000</ele>
        <time>2008-06-25T16:15:41Z</time>
      </trkpt>
      <trkpt lat="49.798118" lon="6.655842">
        <time>2008-06-25T16:15:41Z</time>
      </trkpt>
      <trkpt lat="49.798189" lon="6.656079">
        <time>2008-06-25T16:15:41Z</time>
      </trkpt>
      <trkpt lat="49.798393" lon="6.656415">
        <time>2008-06-25T16:15:41Z</time>
      </trkpt>
      <trkpt lat="49.798563" lon="6.656710">
        <time>2008-06-25T16:15:41Z</time>
      </trkpt>
      <trkpt lat="49.798615" lon="6.657002">
        <time>2008-06-25T16:15:41Z</time>
      </trkpt>
      <trkpt lat="49.798613" lon="6.657252">
        <ele>255.000000</ele>
        <time>2008-06-25T16:15:41Z</time>
      </trkpt>
      <trkpt lat="49.798613" lon="6.657252">
        <time>2008-06-25T16:15:41Z</time>
      </trkpt>
      <trkpt lat="49.798576" lon="6.657488">
        <time>2008-06-25T16:15:41Z</time>
      </trkpt>
      <trkpt lat="49.798610" lon="6.657849">
        <time>2008-06-25T16:15:41Z</time>
      </trkpt>
      <trkpt lat="49.798855" lon="6.659075">
        <time>2008-06-25T16:15:41Z</time>
      </trkpt>
      <trkpt lat="49.798931" lon="6.659826">
        <time>2008-06-25T16:15:41Z</time>
      </trkpt>
      <trkpt lat="49.798902" lon="6.660325">
        <time>2008-06-25T16:15:41Z</time>
      </trkpt>
      <trkpt lat="49.798765" lon="6.660671">
        <time>2008-06-25T16:15:41Z</time>
      </trkpt>
      <trkpt lat="49.798539" lon="6.660848">
        <time>2008-06-25T16:15:41Z</time>
      </trkpt>
      <trkpt lat="49.798206" lon="6.660858">
        <time>2008-06-25T16:15:41Z</time>
      </trkpt>
      <trkpt lat="49.797647" lon="6.661170">
        <time>2008-06-25T16:15:41Z</time>
      </trkpt>
      <trkpt lat="49.797296" lon="6.661290">
        <time>2008-06-25T16:15:41Z</time>
      </trkpt>
      <trkpt lat="49.796962" lon="6.661466">
        <time>2008-06-25T16:15:41Z</time>
      </trkpt>
      <trkpt lat="49.796718" lon="6.661699">
        <time>2008-06-25T16:15:41Z</time>
      </trkpt>
      <trkpt lat="49.796708" lon="6.661851">
        <ele>258.000000</ele>
        <time>2008-06-25T16:15:41Z</time>
      </trkpt>
      <trkpt lat="49.796708" lon="6.661851">
        <time>2008-06-25T16:15:41Z</time>
      </trkpt>
      <trkpt lat="49.796806" lon="6.661964">
        <time>2008-06-25T16:15:41Z</time>
      </trkpt>
      <trkpt lat="49.797147" lon="6.662149">
        <time>2008-06-25T16:15:41Z</time>
      </trkpt>
      <trkpt lat="49.797488" lon="6.662320">
        <time>2008-06-25T16:15:41Z</time>
      </trkpt>
      <trkpt lat="49.797639" lon="6.662558">
        <time>2008-06-25T16:15:41Z</time>
      </trkpt>
      <trkpt lat="49.797683" lon="6.662781">
        <time>2008-06-25T16:15:41Z</time>
      </trkpt>
      <trkpt lat="49.797683" lon="6.662781">
        <time>2008-06-25T16:15:41Z</time>
      </trkpt>
      <trkpt lat="49.797547" lon="6.663016">
        <time>2008-06-25T16:15:41Z</time>
      </trkpt>
      <trkpt lat="49.797186" lon="6.663163">
        <time>2008-06-25T16:15:41Z</time>
      </trkpt>
      <trkpt lat="49.796718" lon="6.663296">
        <time>2008-06-25T16:15:41Z</time>
      </trkpt>
      <trkpt lat="49.796356" lon="6.663638">
        <time>2008-06-25T16:15:41Z</time>
      </trkpt>
      <trkpt lat="49.796086" lon="6.663773">
        <time>2008-06-25T16:15:41Z</time>
      </trkpt>
      <trkpt lat="49.795843" lon="6.663867">
        <time>2008-06-25T16:15:41Z</time>
      </trkpt>
      <trkpt lat="49.795788" lon="6.663978">
        <time>2008-06-25T16:15:41Z</time>
      </trkpt>
      <trkpt lat="49.795805" lon="6.664117">
        <time>2008-06-25T16:15:41Z</time>
      </trkpt>
      <trkpt lat="49.795859" lon="6.664215">
        <time>2008-06-25T16:15:41Z</time>
      </trkpt>
      <trkpt lat="49.795992" lon="6.664411">
        <time>2008-06-25T16:15:41Z</time>
      </trkpt>
      <trkpt lat="49.796189" lon="6.664664">
        <time>2008-06-25T16:15:41Z</time>
      </trkpt>
      <trkpt lat="49.796349" lon="6.664985">
        <time>2008-06-25T16:15:41Z</time>
      </trkpt>
      <trkpt lat="49.796482" lon="6.665307">
        <ele>261.000000</ele>
        <time>2008-06-25T16:15:41Z</time>
      </trkpt>
      <trkpt lat="49.796482" lon="6.665307">
        <time>2008-06-25T16:15:41Z</time>
      </trkpt>
      <trkpt lat="49.796535" lon="6.665488">
        <time>2008-06-25T16:15:41Z</time>
      </trkpt>
      <trkpt lat="49.796542" lon="6.665724">
        <time>2008-06-25T16:15:41Z</time>
      </trkpt>
      <trkpt lat="49.796505" lon="6.665918">
        <time>2008-06-25T16:15:41Z</time>
      </trkpt>
      <trkpt lat="49.796351" lon="6.666083">
        <time>2008-06-25T16:15:41Z</time>
      </trkpt>
      <trkpt lat="49.795910" lon="6.666216">
        <time>2008-06-25T16:15:41Z</time>
      </trkpt>
      <trkpt lat="49.795569" lon="6.666114">
        <time>2008-06-25T16:15:41Z</time>
      </trkpt>
      <trkpt lat="49.795228" lon="6.666012">
        <time>2008-06-25T16:15:41Z</time>
      </trkpt>
      <trkpt lat="49.794923" lon="6.665813">
        <time>2008-06-25T16:15:41Z</time>
      </trkpt>
      <trkpt lat="49.794593" lon="6.665433">
        <time>2008-06-25T16:15:41Z</time>
      </trkpt>
      <trkpt lat="49.794272" lon="6.664985">
        <time>2008-06-25T16:15:41Z</time>
      </trkpt>
      <trkpt lat="49.794173" lon="6.664969">
        <time>2008-06-25T16:15:41Z</time>
      </trkpt>
      <trkpt lat="49.794091" lon="6.665080">
        <time>2008-06-25T16:15:41Z</time>
      </trkpt>
      <trkpt lat="49.794063" lon="6.665301">
        <time>2008-06-25T16:15:41Z</time>
      </trkpt>
      <trkpt lat="49.793971" lon="6.665647">
        <time>2008-06-25T16:15:41Z</time>
      </trkpt>
      <trkpt lat="49.793844" lon="6.665882">
        <time>2008-06-25T16:15:41Z</time>
      </trkpt>
      <trkpt lat="49.793653" lon="6.666296">
        <time>2008-06-25T16:15:41Z</time>
      </trkpt>
      <trkpt lat="49.793481" lon="6.666529">
        <time>2008-06-25T16:15:41Z</time>
      </trkpt>
      <trkpt lat="49.793426" lon="6.666570">
        <time>2008-06-25T16:15:41Z</time>
      </trkpt>
      <trkpt lat="49.793426" lon="6.666570">
        <time>2008-06-25T16:15:41Z</time>
      </trkpt>
      <trkpt lat="49.793255" lon="6.666693">
        <time>2008-06-25T16:15:41Z</time>
      </trkpt>
      <trkpt lat="49.793255" lon="6.666693">
        <time>2008-06-25T16:15:41Z</time>
      </trkpt>
      <trkpt lat="49.793048" lon="6.666773">
        <ele>255.000000</ele>
        <time>2008-06-25T16:15:41Z</time>
      </trkpt>
      <trkpt lat="49.793048" lon="6.666773">
        <time>2008-06-25T16:15:41Z</time>
      </trkpt>
      <trkpt lat="49.792941" lon="6.666550">
        <time>2008-06-25T16:15:41Z</time>
      </trkpt>
      <trkpt lat="49.792018" lon="6.665968">
        <time>2008-06-25T16:15:41Z</time>
      </trkpt>
      <trkpt lat="49.791570" lon="6.665725">
        <time>2008-06-25T16:15:41Z</time>
      </trkpt>
      <trkpt lat="49.791202" lon="6.665720">
        <ele>252.000000</ele>
        <time>2008-06-25T16:15:41Z</time>
      </trkpt>
      <trkpt lat="49.791202" lon="6.665720">
        <time>2008-06-25T16:15:41Z</time>
      </trkpt>
      <trkpt lat="49.790759" lon="6.666034">
        <time>2008-06-25T16:15:41Z</time>
      </trkpt>
      <trkpt lat="49.790191" lon="6.666332">
        <time>2008-06-25T16:15:41Z</time>
      </trkpt>
      <trkpt lat="49.789092" lon="6.666705">
        <time>2008-06-25T16:15:41Z</time>
      </trkpt>
      <trkpt lat="49.788416" lon="6.666946">
        <time>2008-06-25T16:15:41Z</time>
      </trkpt>
      <trkpt lat="49.788156" lon="6.666928">
        <time>2008-06-25T16:15:41Z</time>
      </trkpt>
      <trkpt lat="49.788156" lon="6.666928">
        <time>2008-06-25T16:15:41Z</time>
      </trkpt>
      <trkpt lat="49.786709" lon="6.666825">
        <time>2008-06-25T16:15:41Z</time>
      </trkpt>
      <trkpt lat="49.785891" lon="6.666758">
        <time>2008-06-25T16:15:41Z</time>
      </trkpt>
      <trkpt lat="49.785370" lon="6.666682">
        <time>2008-06-25T16:15:41Z</time>
      </trkpt>
      <trkpt lat="49.785038" lon="6.666552">
        <time>2008-06-25T16:15:41Z</time>
      </trkpt>
      <trkpt lat="49.785038" lon="6.666552">
        <time>2008-06-25T16:15:41Z</time>
      </trkpt>
      <trkpt lat="49.784868" lon="6.666439">
        <time>2008-06-25T16:15:41Z</time>
      </trkpt>
      <trkpt lat="49.784617" lon="6.666255">
        <time>2008-06-25T16:15:41Z</time>
      </trkpt>
      <trkpt lat="49.784412" lon="6.666002">
        <time>2008-06-25T16:15:41Z</time>
      </trkpt>
      <trkpt lat="49.783797" lon="6.665091">
        <time>2008-06-25T16:15:41Z</time>
      </trkpt>
      <trkpt lat="49.783492" lon="6.664921">
        <time>2008-06-25T16:15:41Z</time>
      </trkpt>
      <trkpt lat="49.783150" lon="6.664999">
        <time>2008-06-25T16:15:41Z</time>
      </trkpt>
      <trkpt lat="49.782519" lon="6.665338">
        <time>2008-06-25T16:15:41Z</time>
      </trkpt>
      <trkpt lat="49.782212" lon="6.665486">
        <ele>209.000000</ele>
        <time>2008-06-25T16:15:41Z</time>
      </trkpt>
      <trkpt lat="49.782212" lon="6.665486">
        <time>2008-06-25T16:15:41Z</time>
      </trkpt>
      <trkpt lat="49.782043" lon="6.665220">
        <time>2008-06-25T16:15:41Z</time>
      </trkpt>
      <trkpt lat="49.781873" lon="6.665093">
        <time>2008-06-25T16:15:41Z</time>
      </trkpt>
      <trkpt lat="49.781505" lon="6.664991">
        <time>2008-06-25T16:15:41Z</time>
      </trkpt>
      <trkpt lat="49.781022" lon="6.664567">
        <time>2008-06-25T16:15:41Z</time>
      </trkpt>
      <trkpt lat="49.780834" lon="6.664398">
        <time>2008-06-25T16:15:41Z</time>
      </trkpt>
      <trkpt lat="49.780834" lon="6.664398">
        <time>2008-06-25T16:15:41Z</time>
      </trkpt>
      <trkpt lat="49.780815" lon="6.664592">
        <time>2008-06-25T16:15:41Z</time>
      </trkpt>
      <trkpt lat="49.780760" lon="6.664800">
        <time>2008-06-25T16:15:41Z</time>
      </trkpt>
      <trkpt lat="49.780723" lon="6.664827">
        <time>2008-06-25T16:15:41Z</time>
      </trkpt>
      <trkpt lat="49.780642" lon="6.664854">
        <time>2008-06-25T16:15:41Z</time>
      </trkpt>
      <trkpt lat="49.780642" lon="6.664854">
        <time>2008-06-25T16:15:41Z</time>
      </trkpt>
      <trkpt lat="49.780562" lon="6.664825">
        <time>2008-06-25T16:15:41Z</time>
      </trkpt>
      <trkpt lat="49.780499" lon="6.664782">
        <time>2008-06-25T16:15:41Z</time>
      </trkpt>
      <trkpt lat="49.780392" lon="6.664642">
        <time>2008-06-25T16:15:41Z</time>
      </trkpt>
      <trkpt lat="49.780320" lon="6.664572">
        <time>2008-06-25T16:15:41Z</time>
      </trkpt>
      <trkpt lat="49.780320" lon="6.664572">
        <time>2008-06-25T16:15:41Z</time>
      </trkpt>
      <trkpt lat="49.780095" lon="6.664638">
        <time>2008-06-25T16:15:41Z</time>
      </trkpt>
      <trkpt lat="49.779905" lon="6.664871">
        <time>2008-06-25T16:15:41Z</time>
      </trkpt>
      <trkpt lat="49.779905" lon="6.664871">
        <time>2008-06-25T16:15:41Z</time>
      </trkpt>
      <trkpt lat="49.779724" lon="6.665160">
        <time>2008-06-25T16:15:41Z</time>
      </trkpt>
      <trkpt lat="49.779624" lon="6.665256">
        <ele>135.000000</ele>
        <time>2008-06-25T16:15:41Z</time>
      </trkpt>
      <trkpt lat="49.779624" lon="6.665256">
        <time>2008-06-25T16:15:41Z</time>
      </trkpt>
      <trkpt lat="49.779360" lon="6.664364">
        <time>2008-06-25T16:15:41Z</time>
      </trkpt>
      <trkpt lat="49.779360" lon="6.664364">
        <time>2008-06-25T16:15:41Z</time>
      </trkpt>
      <trkpt lat="49.779477" lon="6.664310">
        <time>2008-06-25T16:15:41Z</time>
      </trkpt>
      <trkpt lat="49.779606" lon="6.663784">
        <time>2008-06-25T16:15:41Z</time>
      </trkpt>
      <trkpt lat="49.779679" lon="6.663480">
        <time>2008-06-25T16:15:41Z</time>
      </trkpt>
      <trkpt lat="49.779591" lon="6.663159">
        <time>2008-06-25T16:15:41Z</time>
      </trkpt>
      <trkpt lat="49.779591" lon="6.663159">
        <time>2008-06-25T16:15:41Z</time>
      </trkpt>
      <trkpt lat="49.779546" lon="6.663131">
        <time>2008-06-25T16:15:41Z</time>
      </trkpt>
      <trkpt lat="49.779521" lon="6.662908">
        <time>2008-06-25T16:15:41Z</time>
      </trkpt>
      <trkpt lat="49.779504" lon="6.662658">
        <time>2008-06-25T16:15:41Z</time>
      </trkpt>
      <trkpt lat="49.779488" lon="6.662339">
        <time>2008-06-25T16:15:41Z</time>
      </trkpt>
      <trkpt lat="49.779446" lon="6.661894">
        <ele>136.000000</ele>
        <time>2008-06-25T16:15:41Z</time>
      </trkpt>
      <trkpt lat="49.779446" lon="6.661894">
        <time>2008-06-25T16:15:41Z</time>
      </trkpt>
      <trkpt lat="49.779285" lon="6.661600">
        <time>2008-06-25T16:15:41Z</time>
      </trkpt>
      <trkpt lat="49.779215" lon="6.661377">
        <ele>139.000000</ele>
        <time>2008-06-25T16:15:41Z</time>
      </trkpt>
      <trkpt lat="49.779215" lon="6.661377">
        <time>2008-06-25T16:15:41Z</time>
      </trkpt>
      <trkpt lat="49.778761" lon="6.660482">
        <time>2008-06-25T16:15:41Z</time>
      </trkpt>
      <trkpt lat="49.778761" lon="6.660482">
        <time>2008-06-25T16:15:41Z</time>
      </trkpt>
      <trkpt lat="49.778468" lon="6.659881">
        <time>2008-06-25T16:15:41Z</time>
      </trkpt>
      <trkpt lat="49.778237" lon="6.659420">
        <time>2008-06-25T16:15:41Z</time>
      </trkpt>
      <trkpt lat="49.777969" lon="6.659180">
        <time>2008-06-25T16:15:41Z</time>
      </trkpt>
      <trkpt lat="49.777852" lon="6.659068">
        <time>2008-06-25T16:15:41Z</time>
      </trkpt>
      <trkpt lat="49.777852" lon="6.659068">
        <time>2008-06-25T16:15:41Z</time>
      </trkpt>
      <trkpt lat="49.777093" lon="6.658266">
        <time>2008-06-25T16:15:41Z</time>
      </trkpt>
      <trkpt lat="49.777093" lon="6.658266">
        <time>2008-06-25T16:15:41Z</time>
      </trkpt>
      <trkpt lat="49.776380" lon="6.657048">
        <time>2008-06-25T16:15:41Z</time>
      </trkpt>
      <trkpt lat="49.775981" lon="6.656168">
        <time>2008-06-25T16:15:41Z</time>
      </trkpt>
      <trkpt lat="49.775919" lon="6.656015">
        <time>2008-06-25T16:15:41Z</time>
      </trkpt>
      <trkpt lat="49.775919" lon="6.656015">
        <time>2008-06-25T16:15:41Z</time>
      </trkpt>
      <trkpt lat="49.775730" lon="6.655984">
        <time>2008-06-25T16:15:41Z</time>
      </trkpt>
      <trkpt lat="49.775730" lon="6.655984">
        <time>2008-06-25T16:15:41Z</time>
      </trkpt>
      <trkpt lat="49.775624" lon="6.655664">
        <time>2008-06-25T16:15:41Z</time>
      </trkpt>
      <trkpt lat="49.775410" lon="6.655411">
        <time>2008-06-25T16:15:41Z</time>
      </trkpt>
      <trkpt lat="49.775438" lon="6.655189">
        <time>2008-06-25T16:15:41Z</time>
      </trkpt>
      <trkpt lat="49.775493" lon="6.654898">
        <time>2008-06-25T16:15:41Z</time>
      </trkpt>
      <trkpt lat="49.775493" lon="6.654898">
        <time>2008-06-25T16:15:41Z</time>
      </trkpt>
      <trkpt lat="49.775290" lon="6.654382">
        <time>2008-06-25T16:15:41Z</time>
      </trkpt>
      <trkpt lat="49.775254" lon="6.654256">
        <time>2008-06-25T16:15:41Z</time>
      </trkpt>
      <trkpt lat="49.775201" lon="6.654172">
        <time>2008-06-25T16:15:41Z</time>
      </trkpt>
      <trkpt lat="49.775192" lon="6.654075">
        <time>2008-06-25T16:15:41Z</time>
      </trkpt>
      <trkpt lat="49.775192" lon="6.654075">
        <time>2008-06-25T16:15:41Z</time>
      </trkpt>
      <trkpt lat="49.775149" lon="6.653797">
        <time>2008-06-25T16:15:41Z</time>
      </trkpt>
      <trkpt lat="49.775069" lon="6.653685">
        <time>2008-06-25T16:15:41Z</time>
      </trkpt>
      <trkpt lat="49.774883" lon="6.653085">
        <time>2008-06-25T16:15:41Z</time>
      </trkpt>
      <trkpt lat="49.774532" lon="6.651553">
        <time>2008-06-25T16:15:41Z</time>
      </trkpt>
      <trkpt lat="49.774436" lon="6.650983">
        <time>2008-06-25T16:15:41Z</time>
      </trkpt>
      <trkpt lat="49.774436" lon="6.650983">
        <time>2008-06-25T16:15:41Z</time>
      </trkpt>
      <trkpt lat="49.774360" lon="6.650163">
        <ele>172.000000</ele>
        <time>2008-06-25T16:15:41Z</time>
      </trkpt>
      <trkpt lat="49.774360" lon="6.650163">
        <time>2008-06-25T16:15:41Z</time>
      </trkpt>
      <trkpt lat="49.774351" lon="6.650107">
        <time>2008-06-25T16:15:41Z</time>
      </trkpt>
      <trkpt lat="49.774264" lon="6.649676">
        <time>2008-06-25T16:15:41Z</time>
      </trkpt>
      <trkpt lat="49.774264" lon="6.649676">
        <time>2008-06-25T16:15:41Z</time>
      </trkpt>
      <trkpt lat="49.774148" lon="6.649466">
        <time>2008-06-25T16:15:41Z</time>
      </trkpt>
      <trkpt lat="49.774068" lon="6.649354">
        <time>2008-06-25T16:15:41Z</time>
      </trkpt>
      <trkpt lat="49.773979" lon="6.649228">
        <time>2008-06-25T16:15:41Z</time>
      </trkpt>
      <trkpt lat="49.773979" lon="6.649228">
        <time>2008-06-25T16:15:41Z</time>
      </trkpt>
      <trkpt lat="49.773981" lon="6.648894">
        <time>2008-06-25T16:15:41Z</time>
      </trkpt>
      <trkpt lat="49.774117" lon="6.648688">
        <time>2008-06-25T16:15:41Z</time>
      </trkpt>
      <trkpt lat="49.774117" lon="6.648688">
        <time>2008-06-25T16:15:41Z</time>
      </trkpt>
      <trkpt lat="49.774135" lon="6.648660">
        <time>2008-06-25T16:15:41Z</time>
      </trkpt>
      <trkpt lat="49.774235" lon="6.648454">
        <time>2008-06-25T16:15:41Z</time>
      </trkpt>
      <trkpt lat="49.774273" lon="6.648149">
        <time>2008-06-25T16:15:41Z</time>
      </trkpt>
      <trkpt lat="49.774273" lon="6.648149">
        <time>2008-06-25T16:15:41Z</time>
      </trkpt>
      <trkpt lat="49.774094" lon="6.647966">
        <time>2008-06-25T16:15:41Z</time>
      </trkpt>
      <trkpt lat="49.774014" lon="6.647770">
        <time>2008-06-25T16:15:41Z</time>
      </trkpt>
      <trkpt lat="49.773952" lon="6.647561">
        <time>2008-06-25T16:15:41Z</time>
      </trkpt>
      <trkpt lat="49.773981" lon="6.647312">
        <time>2008-06-25T16:15:41Z</time>
      </trkpt>
      <trkpt lat="49.773902" lon="6.646825">
        <time>2008-06-25T16:15:41Z</time>
      </trkpt>
      <trkpt lat="49.773913" lon="6.646617">
        <time>2008-06-25T16:15:41Z</time>
      </trkpt>
      <trkpt lat="49.773842" lon="6.646463">
        <time>2008-06-25T16:15:41Z</time>
      </trkpt>
      <trkpt lat="49.773797" lon="6.646337">
        <time>2008-06-25T16:15:41Z</time>
      </trkpt>
      <trkpt lat="49.773797" lon="6.646337">
        <time>2008-06-25T16:15:41Z</time>
      </trkpt>
      <trkpt lat="49.773798" lon="6.646199">
        <time>2008-06-25T16:15:41Z</time>
      </trkpt>
      <trkpt lat="49.773853" lon="6.646088">
        <time>2008-06-25T16:15:41Z</time>
      </trkpt>
      <trkpt lat="49.773871" lon="6.645950">
        <time>2008-06-25T16:15:41Z</time>
      </trkpt>
      <trkpt lat="49.773845" lon="6.645783">
        <time>2008-06-25T16:15:41Z</time>
      </trkpt>
      <trkpt lat="49.773524" lon="6.645404">
        <time>2008-06-25T16:15:41Z</time>
      </trkpt>
      <trkpt lat="49.773536" lon="6.644904">
        <time>2008-06-25T16:15:41Z</time>
      </trkpt>
      <trkpt lat="49.773233" lon="6.644248">
        <time>2008-06-25T16:15:41Z</time>
      </trkpt>
      <trkpt lat="49.773144" lon="6.644149">
        <time>2008-06-25T16:15:41Z</time>
      </trkpt>
      <trkpt lat="49.773144" lon="6.644149">
        <time>2008-06-25T16:15:41Z</time>
      </trkpt>
      <trkpt lat="49.773181" lon="6.643914">
        <time>2008-06-25T16:15:41Z</time>
      </trkpt>
      <trkpt lat="49.772996" lon="6.643287">
        <time>2008-06-25T16:15:41Z</time>
      </trkpt>
      <trkpt lat="49.772871" lon="6.643174">
        <time>2008-06-25T16:15:41Z</time>
      </trkpt>
      <trkpt lat="49.772718" lon="6.643089">
        <time>2008-06-25T16:15:41Z</time>
      </trkpt>
      <trkpt lat="49.772718" lon="6.643089">
        <time>2008-06-25T16:15:41Z</time>
      </trkpt>
      <trkpt lat="49.772622" lon="6.642629">
        <time>2008-06-25T16:15:41Z</time>
      </trkpt>
      <trkpt lat="49.772622" lon="6.642629">
        <time>2008-06-25T16:15:41Z</time>
      </trkpt>
      <trkpt lat="49.772613" lon="6.642601">
        <time>2008-06-25T16:15:41Z</time>
      </trkpt>
      <trkpt lat="49.772606" lon="6.642323">
        <time>2008-06-25T16:15:41Z</time>
      </trkpt>
      <trkpt lat="49.772535" lon="6.642170">
        <time>2008-06-25T16:15:41Z</time>
      </trkpt>
      <trkpt lat="49.772419" lon="6.641974">
        <time>2008-06-25T16:15:41Z</time>
      </trkpt>
      <trkpt lat="49.772376" lon="6.641654">
        <time>2008-06-25T16:15:41Z</time>
      </trkpt>
      <trkpt lat="49.772287" lon="6.641445">
        <time>2008-06-25T16:15:41Z</time>
      </trkpt>
      <trkpt lat="49.772216" lon="6.641347">
        <time>2008-06-25T16:15:41Z</time>
      </trkpt>
      <trkpt lat="49.772208" lon="6.641013">
        <time>2008-06-25T16:15:41Z</time>
      </trkpt>
      <trkpt lat="49.772164" lon="6.640888">
        <time>2008-06-25T16:15:41Z</time>
      </trkpt>
      <trkpt lat="49.772120" lon="6.640790">
        <time>2008-06-25T16:15:41Z</time>
      </trkpt>
      <trkpt lat="49.771941" lon="6.640607">
        <time>2008-06-25T16:15:41Z</time>
      </trkpt>
      <trkpt lat="49.771762" lon="6.640410">
        <time>2008-06-25T16:15:41Z</time>
      </trkpt>
      <trkpt lat="49.771673" lon="6.640284">
        <time>2008-06-25T16:15:41Z</time>
      </trkpt>
      <trkpt lat="49.771647" lon="6.640187">
        <time>2008-06-25T16:15:41Z</time>
      </trkpt>
      <trkpt lat="49.771647" lon="6.640187">
        <time>2008-06-25T16:15:41Z</time>
      </trkpt>
      <trkpt lat="49.771647" lon="6.640104">
        <time>2008-06-25T16:15:41Z</time>
      </trkpt>
      <trkpt lat="49.771621" lon="6.639881">
        <time>2008-06-25T16:15:41Z</time>
      </trkpt>
      <trkpt lat="49.771551" lon="6.639644">
        <time>2008-06-25T16:15:41Z</time>
      </trkpt>
      <trkpt lat="49.771337" lon="6.639267">
        <time>2008-06-25T16:15:41Z</time>
      </trkpt>
      <trkpt lat="49.771266" lon="6.639168">
        <time>2008-06-25T16:15:41Z</time>
      </trkpt>
      <trkpt lat="49.771266" lon="6.639168">
        <time>2008-06-25T16:15:41Z</time>
      </trkpt>
      <trkpt lat="49.771195" lon="6.638959">
        <time>2008-06-25T16:15:41Z</time>
      </trkpt>
      <trkpt lat="49.771052" lon="6.638749">
        <time>2008-06-25T16:15:41Z</time>
      </trkpt>
      <trkpt lat="49.770900" lon="6.638581">
        <time>2008-06-25T16:15:41Z</time>
      </trkpt>
      <trkpt lat="49.770705" lon="6.638064">
        <time>2008-06-25T16:15:41Z</time>
      </trkpt>
      <trkpt lat="49.770705" lon="6.638064">
        <time>2008-06-25T16:15:41Z</time>
      </trkpt>
      <trkpt lat="49.770616" lon="6.637897">
        <time>2008-06-25T16:15:41Z</time>
      </trkpt>
      <trkpt lat="49.770528" lon="6.637632">
        <time>2008-06-25T16:15:41Z</time>
      </trkpt>
      <trkpt lat="49.770431" lon="6.637242">
        <time>2008-06-25T16:15:41Z</time>
      </trkpt>
      <trkpt lat="49.770386" lon="6.637186">
        <time>2008-06-25T16:15:41Z</time>
      </trkpt>
      <trkpt lat="49.770243" lon="6.637184">
        <time>2008-06-25T16:15:41Z</time>
      </trkpt>
      <trkpt lat="49.770180" lon="6.637169">
        <time>2008-06-25T16:15:41Z</time>
      </trkpt>
      <trkpt lat="49.770162" lon="6.637141">
        <time>2008-06-25T16:15:41Z</time>
      </trkpt>
      <trkpt lat="49.770162" lon="6.637141">
        <time>2008-06-25T16:15:41Z</time>
      </trkpt>
      <trkpt lat="49.770153" lon="6.637113">
        <time>2008-06-25T16:15:41Z</time>
      </trkpt>
      <trkpt lat="49.770172" lon="6.637030">
        <time>2008-06-25T16:15:41Z</time>
      </trkpt>
      <trkpt lat="49.770190" lon="6.636892">
        <time>2008-06-25T16:15:41Z</time>
      </trkpt>
      <trkpt lat="49.770173" lon="6.636711">
        <time>2008-06-25T16:15:41Z</time>
      </trkpt>
      <trkpt lat="49.770120" lon="6.636557">
        <time>2008-06-25T16:15:41Z</time>
      </trkpt>
      <trkpt lat="49.769960" lon="6.636222">
        <time>2008-06-25T16:15:41Z</time>
      </trkpt>
      <trkpt lat="49.769960" lon="6.636222">
        <time>2008-06-25T16:15:41Z</time>
      </trkpt>
      <trkpt lat="49.769773" lon="6.635901">
        <time>2008-06-25T16:15:41Z</time>
      </trkpt>
      <trkpt lat="49.769603" lon="6.635690">
        <time>2008-06-25T16:15:41Z</time>
      </trkpt>
      <trkpt lat="49.769603" lon="6.635690">
        <time>2008-06-25T16:15:41Z</time>
      </trkpt>
      <trkpt lat="49.769506" lon="6.635494">
        <time>2008-06-25T16:15:41Z</time>
      </trkpt>
      <trkpt lat="49.769443" lon="6.635383">
        <time>2008-06-25T16:15:41Z</time>
      </trkpt>
      <trkpt lat="49.769426" lon="6.635313">
        <time>2008-06-25T16:15:41Z</time>
      </trkpt>
      <trkpt lat="49.769426" lon="6.635243">
        <time>2008-06-25T16:15:41Z</time>
      </trkpt>
      <trkpt lat="49.769481" lon="6.635133">
        <time>2008-06-25T16:15:41Z</time>
      </trkpt>
      <trkpt lat="49.769581" lon="6.634940">
        <time>2008-06-25T16:15:41Z</time>
      </trkpt>
      <trkpt lat="49.769581" lon="6.634940">
        <time>2008-06-25T16:15:41Z</time>
      </trkpt>
      <trkpt lat="49.769072" lon="6.634253">
        <time>2008-06-25T16:15:41Z</time>
      </trkpt>
      <trkpt lat="49.768974" lon="6.634113">
        <time>2008-06-25T16:15:41Z</time>
      </trkpt>
      <trkpt lat="49.769083" lon="6.633906">
        <ele>190.000000</ele>
        <time>2008-06-25T16:15:41Z</time>
      </trkpt>
      <trkpt lat="49.769083" lon="6.633906">
        <time>2008-06-25T16:15:41Z</time>
      </trkpt>
      <trkpt lat="49.768877" lon="6.633709">
        <time>2008-06-25T16:15:41Z</time>
      </trkpt>
      <trkpt lat="49.769112" lon="6.633546">
        <time>2008-06-25T16:15:41Z</time>
      </trkpt>
      <trkpt lat="49.769014" lon="6.633336">
        <ele>179.000000</ele>
        <time>2008-06-25T16:15:41Z</time>
      </trkpt>
      <trkpt lat="49.769014" lon="6.633336">
        <time>2008-06-25T16:15:41Z</time>
      </trkpt>
      <trkpt lat="49.768925" lon="6.633210">
        <time>2008-06-25T16:15:41Z</time>
      </trkpt>
      <trkpt lat="49.768925" lon="6.633210">
        <time>2008-06-25T16:15:41Z</time>
      </trkpt>
      <trkpt lat="49.769033" lon="6.633073">
        <ele>172.000000</ele>
        <time>2008-06-25T16:15:41Z</time>
      </trkpt>
      <trkpt lat="49.769033" lon="6.633073">
        <time>2008-06-25T16:15:41Z</time>
      </trkpt>
      <trkpt lat="49.768926" lon="6.632974">
        <time>2008-06-25T16:15:41Z</time>
      </trkpt>
      <trkpt lat="49.768506" lon="6.632594">
        <time>2008-06-25T16:15:41Z</time>
      </trkpt>
      <trkpt lat="49.768139" lon="6.632159">
        <time>2008-06-25T16:15:41Z</time>
      </trkpt>
      <trkpt lat="49.768139" lon="6.632159">
        <time>2008-06-25T16:15:41Z</time>
      </trkpt>
      <trkpt lat="49.768040" lon="6.632255">
        <time>2008-06-25T16:15:41Z</time>
      </trkpt>
      <trkpt lat="49.767904" lon="6.632350">
        <time>2008-06-25T16:15:41Z</time>
      </trkpt>
      <trkpt lat="49.767797" lon="6.632363">
        <time>2008-06-25T16:15:41Z</time>
      </trkpt>
      <trkpt lat="49.767671" lon="6.632347">
        <time>2008-06-25T16:15:41Z</time>
      </trkpt>
      <trkpt lat="49.767528" lon="6.632207">
        <time>2008-06-25T16:15:41Z</time>
      </trkpt>
      <trkpt lat="49.767465" lon="6.632108">
        <time>2008-06-25T16:15:41Z</time>
      </trkpt>
      <trkpt lat="49.767403" lon="6.631955">
        <time>2008-06-25T16:15:41Z</time>
      </trkpt>
      <trkpt lat="49.767287" lon="6.631787">
        <time>2008-06-25T16:15:41Z</time>
      </trkpt>
      <trkpt lat="49.767243" lon="6.631648">
        <time>2008-06-25T16:15:41Z</time>
      </trkpt>
      <trkpt lat="49.767243" lon="6.631648">
        <time>2008-06-25T16:15:41Z</time>
      </trkpt>
      <trkpt lat="49.767057" lon="6.631201">
        <time>2008-06-25T16:15:41Z</time>
      </trkpt>
      <trkpt lat="49.766959" lon="6.631019">
        <time>2008-06-25T16:15:41Z</time>
      </trkpt>
      <trkpt lat="49.766861" lon="6.630865">
        <time>2008-06-25T16:15:41Z</time>
      </trkpt>
      <trkpt lat="49.766772" lon="6.630670">
        <time>2008-06-25T16:15:41Z</time>
      </trkpt>
      <trkpt lat="49.766709" lon="6.630586">
        <time>2008-06-25T16:15:41Z</time>
      </trkpt>
      <trkpt lat="49.766709" lon="6.630586">
        <time>2008-06-25T16:15:41Z</time>
      </trkpt>
      <trkpt lat="49.766627" lon="6.630779">
        <time>2008-06-25T16:15:41Z</time>
      </trkpt>
      <trkpt lat="49.766510" lon="6.630930">
        <time>2008-06-25T16:15:41Z</time>
      </trkpt>
      <trkpt lat="49.766347" lon="6.630997">
        <time>2008-06-25T16:15:41Z</time>
      </trkpt>
      <trkpt lat="49.766267" lon="6.630983">
        <time>2008-06-25T16:15:41Z</time>
      </trkpt>
      <trkpt lat="49.766186" lon="6.630954">
        <time>2008-06-25T16:15:41Z</time>
      </trkpt>
      <trkpt lat="49.765918" lon="6.630700">
        <time>2008-06-25T16:15:41Z</time>
      </trkpt>
      <trkpt lat="49.765506" lon="6.630251">
        <time>2008-06-25T16:15:41Z</time>
      </trkpt>
      <trkpt lat="49.765229" lon="6.629970">
        <time>2008-06-25T16:15:41Z</time>
      </trkpt>
      <trkpt lat="49.765086" lon="6.629898">
        <ele>141.000000</ele>
        <time>2008-06-25T16:15:41Z</time>
      </trkpt>
    </trkseg>
  </trk>

</gpx>
